This demonstration page uses our WeatherBlox Daily Observations layout. Learn more.

Left ArrowRight Arrow

Hourly Observations for July 10, 2016

Temp ( °F °C ) Dew Point ( °F °C ) Humidity (%) Winds ( mph kmh ) Pressure ( in mb ) Visibility ( mi km ) Precip ( " mm )
12:15 am 00:15 Clear 76 24.2 68 20 77 77 SSE 8 13 29.83 1010 10 16 N/A
12:35 am 00:35 Clear 75 23.9 68 20 79 79 SSE 8 13 29.83 1010 10 16 N/A
12:55 am 00:55 Clear 74 23.6 68 20.2 81 81 SSE 8 13 29.83 1010 10 16 N/A
1:15 am 01:15 Clear 75 23.7 68 20.2 81 81 SSE 9 15 29.83 1010 10 16 N/A
1:35 am 01:35 Clear 75 23.8 68 20 79 79 S 10 17 29.80 1009 10 16 N/A
1:55 am 01:55 Clear 75 24 68 20.1 79 79 S 10 17 29.80 1009 10 16 N/A
2:15 am 02:15 Clear 74 23.5 68 20.2 82 82 S 8 13 29.80 1009 10 16 N/A
2:35 am 02:35 Clear 74 23.1 68 20.2 84 84 S 12 19 29.80 1009 10 16 N/A
2:55 am 02:55 Clear 73 23 69 20.3 85 85 SSE 8 13 29.80 1009 10 16 N/A
3:15 am 03:15 Clear 73 22.5 68 20.2 87 87 S 8 13 29.80 1009 10 16 N/A
3:35 am 03:35 Clear 72 22.2 68 20.2 89 89 S 7 11 29.80 1009 10 16 N/A
3:55 am 03:55 Clear 73 22.5 69 20.3 87 87 S 8 13 29.77 1008 10 16 N/A
4:15 am 04:15 Clear 73 22.5 68 20.2 87 87 S 9 15 29.77 1008 10 16 N/A
4:35 am 04:35 Clear 72 22.2 68 20.1 88 88 S 7 11 29.77 1008 10 16 N/A
4:55 am 04:55 Clear 72 22.1 68 20 88 88 S 6 9 29.77 1008 10 16 N/A
5:15 am 05:15 Clear 71 21.8 68 19.8 88 88 S 8 13 29.80 1009 10 16 N/A
5:35 am 05:35 Clear 71 21.6 67 19.6 88 88 S 7 11 29.80 1009 10 16 N/A
5:55 am 05:55 Clear 72 22 67 19.5 86 86 S 8 13 29.77 1008 10 16 N/A
6:15 am 06:15 Clear 71 21.6 67 19.5 88 88 S 10 17 29.80 1009 10 16 N/A
6:35 am 06:35 Sunny 71 21.7 67 19.5 87 87 S 8 13 29.80 1009 10 16 N/A
6:55 am 06:55 Sunny 71 21.5 67 19.3 87 87 S 8 13 29.80 1009 10 16 N/A
7:15 am 07:15 Sunny 71 21.9 67 19.5 86 86 S 12 19 29.77 1008 10 16 N/A
7:35 am 07:35 Sunny 72 22.3 67 19.6 85 85 S 12 19 29.77 1008 10 16 N/A
7:55 am 07:55 Sunny 73 23 68 19.8 82 82 S 10 17 29.77 1008 10 16 N/A
8:15 am 08:15 Sunny 74 23.5 68 20 81 81 S 12 19 29.77 1008 10 16 N/A
8:35 am 08:35 Sunny 76 24.7 68 20.1 76 76 S 13 20 29.74 1007 10 16 N/A
8:55 am 08:55 Sunny 78 25.6 68 20.1 72 72 S 14 22 29.71 1006 10 16 N/A
9:15 am 09:15 Sunny 79 25.9 68 20.2 71 71 S 17 28 29.71 1006 10 16 N/A
9:35 am 09:35 Sunny 80 26.7 69 20.4 68 68 S 13 20 29.71 1006 10 16 N/A
9:55 am 09:55 Sunny 81 27 69 20.5 68 68 S 15 24 29.68 1005 10 16 N/A
10:15 am 10:15 Sunny 82 27.7 69 20.4 65 65 S 15 24 29.68 1005 10 16 N/A
10:35 am 10:35 Sunny 82 28 68 20.2 63 63 S 15 24 29.68 1005 10 16 N/A
10:55 am 10:55 Sunny 84 28.7 69 20.3 60 60 S 16 26 29.65 1004 10 16 N/A
11:15 am 11:15 Sunny 85 29.5 69 20.7 59 59 S 17 28 29.65 1004 10 16 N/A
11:35 am 11:35 Sunny 87 30.3 69 20.4 55 55 S 17 28 29.65 1004 10 16 N/A
11:55 am 11:55 Sunny 87 30.5 69 20.5 55 55 S 16 26 29.62 1003 10 16 N/A
12:15 pm 12:15 Sunny 87 30.8 68 20.1 53 53 S 18 30 29.62 1003 10 16 N/A
12:35 pm 12:35 Sunny 89 31.6 69 20.3 51 51 S 17 28 29.62 1003 10 16 N/A
12:55 pm 12:55 Sunny 90 32.3 68 20.1 48 48 S 18 30 29.59 1002 10 16 N/A
1:15 pm 13:15 Sunny 91 32.9 68 20.1 47 47 S 18 30 29.59 1002 10 16 N/A
1:35 pm 13:35 Sunny 91 32.8 68 20 47 47 SSE 18 30 29.59 1002 10 16 N/A
1:55 pm 13:55 Sunny 92 33.5 67 19.7 44 44 S 18 30 29.59 1002 10 16 N/A
2:15 pm 14:15 Sunny 92 33.2 68 20.2 46 46 S 20 31 29.59 1002 10 16 N/A
2:35 pm 14:35 Sunny 92 33.3 68 20.1 46 46 S 21 33 29.56 1001 10 16 N/A
2:55 pm 14:55 Sunny 93 33.9 69 20.7 46 46 SSE 21 33 29.56 1001 10 16 N/A
3:15 pm 15:15 Sunny 93 33.7 69 20.7 46 46 SSE 21 33 29.56 1001 10 16 N/A
3:35 pm 15:35 Sunny 94 34.3 68 20.2 44 44 S 21 33 29.56 1001 10 16 N/A
3:55 pm 15:55 Sunny 94 34.5 69 20.4 44 44 SSE 18 30 29.56 1001 10 16 N/A
4:15 pm 16:15 Sunny 94 34.6 67 19.6 41 41 S 20 31 29.53 1000 10 16 N/A
4:35 pm 16:35 Sunny 95 34.9 67 19.6 41 41 S 22 35 29.53 1000 10 16 N/A
4:55 pm 16:55 Sunny 95 35 66 18.9 39 39 SSE 17 28 29.53 1000 10 16 N/A
5:15 pm 17:15 Sunny 94 34.7 66 18.8 39 39 SSE 17 28 29.53 1000 10 16 N/A
5:35 pm 17:35 Sunny 94 34.5 66 18.7 39 39 SSE 20 31 29.53 1000 10 16 N/A
5:55 pm 17:55 Sunny 94 34.3 65 18.3 39 39 SSE 22 35 29.53 1000 10 16 N/A
6:15 pm 18:15 Sunny 93 34 65 18.5 40 40 SSE 16 26 29.53 1000 10 16 N/A
6:35 pm 18:35 Sunny 92 33.6 67 19.4 43 43 SSE 16 26 29.53 1000 10 16 N/A
6:55 pm 18:55 Sunny 92 33.1 66 19.1 44 44 SSE 18 30 29.50 999 10 16 N/A
7:15 pm 19:15 Sunny 91 32.5 67 19.5 46 46 SSE 18 30 29.50 999 10 16 N/A
7:35 pm 19:35 Sunny 90 32 67 19.5 48 48 SSE 15 24 29.50 999 10 16 N/A
7:55 pm 19:55 Sunny 89 31.5 66 19 47 47 SSE 16 26 29.50 999 10 16 N/A
8:15 pm 20:15 Sunny 87 30.8 66 19 49 49 SSE 12 19 29.53 1000 10 16 N/A
8:35 pm 20:35 Sunny 86 30.2 66 18.9 51 51 SSE 15 24 29.53 1000 10 16 N/A
8:55 pm 20:55 Sunny 85 29.6 65 18.6 52 52 SSE 15 24 29.53 1000 10 16 N/A
9:15 pm 21:15 Clear 85 29.2 65 18.5 53 53 SSE 16 26 29.53 1000 10 16 N/A
9:35 pm 21:35 Clear 83 28.6 66 19 56 56 SSE 16 26 29.53 1000 10 16 N/A
9:55 pm 21:55 Clear 83 28.1 66 19.1 58 58 SSE 15 24 29.53 1000 10 16 N/A
10:15 pm 22:15 Clear 82 28 67 19.3 59 59 SSE 18 30 29.56 1001 10 16 N/A
10:35 pm 22:35 Clear 83 28.1 66 19.1 58 58 SSE 15 24 29.56 1001 10 16 N/A
10:55 pm 22:55 Clear 83 28.1 66 18.8 57 57 SSE 22 35 29.56 1001 10 16 N/A
11:15 pm 23:15 Clear 82 28 66 18.9 58 58 SSE 21 33 29.56 1001 10 16 N/A
11:35 pm 23:35 Clear 82 27.7 67 19.3 60 60 SSE 20 31 29.59 1002 10 16 N/A
11:55 pm 23:55 Clear 81 27.3 67 19.6 63 63 SSE 21 33 29.59 1002 10 16 N/A

Powered by AerisWeather